GW2645 Weather Reports


time (UTC)temp
C
wind
direction
speed
KPH
gust
KPH
rain 1hr
cm
rain 24hr
cm
rain mn
cm
humidity
%
barometer
mb
20260505091006 11 55 1.6 3.2 0.00 0.00 0.00 83 1012.5
20260505090507 11 55 0.0 4.8 0.00 0.00 0.00 83 1012.4
20260505090025 11 55 1.6 4.8 0.00 0.00 0.00 82 1012.4
20260505085508 11 55 1.6 4.8 0.00 0.00 0.00 82 1012.3
20260505085011 12 55 3.2 4.8 0.00 0.00 0.00 82 1012.2
20260505084528 12 55 0.0 3.2 0.00 0.00 0.00 81 1012.3
20260505084008 12 55 0.0 4.8 0.00 0.00 0.00 81 1012.2
20260505083501 12 55 1.6 4.8 0.00 0.00 0.00 80 1012.2
20260505083018 12 55 3.2 4.8 0.00 0.00 0.00 80 1012.1
20260505082502 12 55 1.6 3.2 0.00 0.00 0.00 80 1012.1
20260505082002 12 310 1.6 3.2 0.00 0.00 0.00 79 1012.1
20260505081521 12 310 0.0 3.2 0.00 0.00 0.00 79 1012.1
20260505081004 12 310 0.0 3.2 0.00 0.00 0.00 79 1012.1
20260505080508 12 310 0.0 3.2 0.00 0.00 0.00 78 1012.0
20260505080025 12 310 0.0 3.2 0.00 0.00 0.00 78 1012.0
20260505075506 12 310 0.0 3.2 0.00 0.00 0.00 77 1011.9
20260505075006 13 310 0.0 3.2 0.00 0.00 0.00 77 1012.0
20260505074528 13 310 0.0 3.2 0.00 0.00 0.00 76 1011.9
20260505074008 13 310 0.0 1.6 0.00 0.00 0.00 75 1011.9
20260505073509 13 310 0.0 1.6 0.00 0.00 0.00 75 1011.7
20260505073030 13 310 0.0 1.6 0.00 0.00 0.00 75 1011.7
20260505072503 13 310 0.0 4.8 0.00 0.00 0.00 74 1011.6
20260505072002 13 310 0.0 4.8 0.00 0.00 0.00 74 1011.5
20260505071518 13 296 0.0 1.6 0.00 0.00 0.00 73 1011.5
20260505071008 13 295 0.0 3.2 0.00 0.00 0.00 73 1011.5
20260505070509 13 295 0.0 3.2 0.00 0.00 0.00 72 1011.4
20260505070020 14 295 0.0 3.2 0.00 0.00 0.00 72 1011.4
20260505065504 14 269 0.0 4.8 0.00 0.00 0.00 71 1011.4
20260505065012 14 269 0.0 4.8 0.00 0.00 0.00 71 1011.3
20260505064524 14 269 0.0 4.8 0.00 0.00 0.00 70 1011.2
20260505064006 14 269 1.6 4.8 0.00 0.00 0.00 70 1011.2
20260505063506 15 352 0.0 3.2 0.00 0.00 0.00 70 1011.2
20260505063041 15 352 0.0 1.6 0.00 0.00 0.00 69 1011.1
20260505062511 15 352 0.0 3.2 0.00 0.00 0.00 69 1011.0
20260505062017 15 352 0.0 3.2 0.00 0.00 0.00 69 1011.0
20260505061533 15 352 0.0 4.8 0.00 0.00 0.00 68 1011.0
20260505061004 15 352 0.0 6.4 0.00 0.00 0.00 68 1011.0
20260505060502 15 9 1.6 6.4 0.00 0.00 0.00 68 1010.9
20260505060017 15 254 0.0 3.2 0.00 0.00 0.00 68 1010.8
20260505055506 15 22 0.0 1.6 0.00 0.00 0.00 68 1010.8
20260505055006 16 22 0.0 3.2 0.00 0.00 0.00 68 1010.7
20260505054527 16 22 0.0 3.2 0.00 0.00 0.00 68 1010.6
20260505054012 16 22 1.6 3.2 0.00 0.00 0.00 68 1010.6
20260505053507 16 22 0.0 3.2 0.00 0.00 0.00 68 1010.7
20260505053026 16 22 0.0 3.2 0.00 0.00 0.00 68 1010.7
20260505052507 16 22 0.0 4.8 0.00 0.00 0.00 68 1010.7
20260505052009 16 22 0.0 4.8 0.00 0.00 0.00 68 1010.4
20260505051536 16 22 0.0 8.0 0.00 0.00 0.00 68 1010.4
20260505051010 16 41 3.2 8.0 0.00 0.00 0.00 68 1010.3
20260505050511 16 14 1.6 6.4 0.00 0.00 0.00 67 1010.3
20260505041542 18 26 1.6 8.0 0.00 0.00 0.00 63 1010.1
20260505041009 18 350 1.6 6.4 0.00 0.00 0.00 63 1010.0
20260505040509 18 22 1.6 6.4 0.00 0.00 0.00 63 1010.0
20260505040029 18 26 1.6 6.4 0.00 0.00 0.00 62 1009.9
20260505035510 19 337 1.6 6.4 0.00 0.00 0.00 62 1009.9
20260505035011 19 352 1.6 8.0 0.00 0.00 0.00 61 1009.8
20260505034528 19 5 1.6 8.0 0.00 0.00 0.00 60 1009.7
20260505034003 20 318 1.6 12.9 0.00 0.00 0.00 60 1009.7
20260505033508 20 11 6.4 12.9 0.00 0.00 0.00 59 1009.6
20260505033020 20 5 0.0 6.4 0.00 0.00 0.00 58 1009.6
20260505032512 20 5 3.2 6.4 0.00 0.00 0.00 57 1009.6
20260505032008 20 22 0.0 8.0 0.00 0.00 0.00 57 1009.6
20260505031529 21 338 1.6 8.0 0.00 0.00 0.00 56 1009.5
20260505031007 21 336 3.2 8.0 0.00 0.00 0.00 55 1009.4
20260505030507 21 333 3.2 8.0 0.00 0.00 0.00 55 1009.4
20260505030026 21 322 1.6 12.9 0.00 0.00 0.00 54 1009.4
20260505025514 21 317 1.6 12.9 0.00 0.00 0.00 53 1009.5
20260505025010 21 340 3.2 12.9 0.00 0.00 0.00 52 1009.4
20260505024528 22 290 3.2 12.9 0.00 0.00 0.00 51 1009.3
20260505024007 22 5 3.2 12.9 0.00 0.00 0.00 49 1009.2
20260505023511 22 327 4.8 9.7 0.00 0.00 0.00 48 1009.3
20260505023026 22 269 0.0 9.7 0.00 0.00 0.00 49 1009.3
20260505022506 22 244 3.2 12.9 0.00 0.00 0.00 51 1009.2
20260505022007 22 236 4.8 12.9 0.00 0.00 0.00 52 1009.2
20260505021520 22 237 3.2 9.7 0.00 0.00 0.00 51 1009.2
20260505021006 22 236 4.8 9.7 0.00 0.00 0.00 52 1009.1
20260505020507 22 216 3.2 9.7 0.00 0.00 0.00 52 1009.1
20260505020024 22 173 3.2 11.3 0.00 0.00 0.00 51 1009.0
20260505015508 22 183 4.8 11.3 0.00 0.00 0.00 52 1009.0
20260505015008 22 162 4.8 9.7 0.00 0.00 0.00 51 1009.0
20260505014528 22 188 3.2 12.9 0.00 0.00 0.00 51 1009.0
20260505014010 22 225 6.4 14.5 0.00 0.00 0.00 50 1008.9
20260505013507 23 195 4.8 14.5 0.00 0.00 0.00 50 1009.0
20260505013029 23 183 4.8 14.5 0.00 0.00 0.00 49 1009.0
20260505012508 23 180 3.2 14.5 0.00 0.00 0.00 48 1009.0
20260505012007 24 226 8.0 14.5 0.00 0.00 0.00 46 1009.0
20260505011520 24 195 6.4 14.5 0.00 0.00 0.00 43 1008.9
20260505011006 25 182 4.8 17.7 0.00 0.00 0.00 40 1008.9
20260505010507 25 242 4.8 17.7 0.00 0.00 0.00 40 1009.0
20260505010024 25 209 6.4 17.7 0.00 0.00 0.00 40 1009.1
20260505005503 25 233 8.0 17.7 0.00 0.00 0.00 41 1009.0
20260505005003 25 238 8.0 17.7 0.00 0.00 0.00 44 1009.0
20260505004506 25 232 6.4 16.1 0.00 0.00 0.00 45 1009.0
20260505004004 25 205 9.7 16.1 0.00 0.00 0.00 44 1009.1
20260505003503 25 227 8.0 16.1 0.00 0.00 0.00 44 1009.0
20260505003011 25 223 4.8 12.9 0.00 0.00 0.00 45 1009.0
20260505002502 25 236 8.0 16.1 0.00 0.00 0.00 45 1009.0
20260505002006 25 217 9.7 16.1 0.00 0.00 0.00 45 1009.0
20260505001516 25 217 6.4 14.5 0.00 0.00 0.00 45 1009.1
20260505001006 25 240 4.8 14.5 0.00 0.00 0.00 46 1009.1
20260505000506 25 254 6.4 17.7 0.00 0.00 0.00 44 1009.1
20260505000020 25 209 6.4 17.7 0.00 0.00 0.00 46 1009.2
20260504235507 25 242 4.8 14.5 0.00 0.00 0.00 45 1009.2
20260504235009 25 244 6.4 14.5 0.00 0.00 0.00 44 1009.3
20260504234503 25 196 4.8 14.5 0.00 0.00 0.00 44 1009.4
20260504234002 25 198 6.4 14.5 0.00 0.00 0.00 42 1009.3
20260504233503 25 185 6.4 17.7 0.00 0.00 0.00 41 1009.4
20260504233010 25 248 8.0 17.7 0.00 0.00 0.00 41 1009.4
20260504232503 25 239 6.4 17.7 0.00 0.00 0.00 40 1009.4
20260504232002 25 223 4.8 11.3 0.00 0.00 0.00 42 1009.4
20260504231514 25 181 4.8 9.7 0.00 0.00 0.00 40 1009.4
20260504231007 25 217 4.8 14.5 0.00 0.00 0.00 39 1009.5
20260504230508 25 237 4.8 16.1 0.00 0.00 0.00 40 1009.5
20260504230020 25 249 6.4 16.1 0.00 0.00 0.00 38 1009.5
20260504225506 25 211 6.4 12.9 0.00 0.00 0.00 38 1009.5
20260504225008 25 231 6.4 12.9 0.00 0.00 0.00 39 1009.6
20260504224527 25 250 4.8 12.9 0.00 0.00 0.00 39 1009.6
20260504224008 25 244 4.8 16.1 0.00 0.00 0.00 42 1009.6
20260504223511 25 245 4.8 16.1 0.00 0.00 0.00 39 1009.6
20260504223007 25 258 8.0 19.3 0.00 0.00 0.00 40 1009.6
20260504222503 25 248 6.4 19.3 0.00 0.00 0.00 41 1009.6
20260504222003 24 257 6.4 16.1 0.00 0.00 0.00 42 1009.6
20260504221511 25 155 4.8 19.3 0.00 0.00 0.00 41 1009.7
20260504221003 25 239 11.3 19.3 0.00 0.00 0.00 41 1009.8
20260504220503 25 195 4.8 12.9 0.00 0.00 0.00 41 1009.9
20260504220017 25 242 3.2 11.3 0.00 0.00 0.00 41 1010.0
20260504215510 25 203 6.4 17.7 0.00 0.00 0.00 40 1010.0
20260504215008 25 180 8.0 17.7 0.00 0.00 0.00 39 1010.0
20260504214534 25 263 8.0 14.5 0.00 0.00 0.00 39 1010.0
20260504214009 25 202 6.4 19.3 0.00 0.00 0.00 37 1010.1
20260504213507 24 184 6.4 19.3 0.00 0.00 0.00 40 1010.0
20260504213028 24 246 9.7 17.7 0.00 0.00 0.00 40 1010.0
20260504212506 24 283 11.3 17.7 0.00 0.00 0.00 41 1010.0
20260504212001 24 185 6.4 16.1 0.00 0.00 0.00 42 1010.0
20260504211507 25 205 6.4 16.1 0.00 0.00 0.00 42 1010.0
20260504211003 24 198 6.4 16.1 0.00 0.00 0.00 43 1010.1
20260504210503 24 267 9.7 16.1 0.00 0.00 0.00 41 1010.0
20260504210019 24 180 8.0 16.1 0.00 0.00 0.00 45 1010.1
20260504205504 23 228 8.0 14.5 0.00 0.00 0.00 44 1010.2
20260504205007 23 227 6.4 14.5 0.00 0.00 0.00 45 1010.2
20260504204520 23 158 4.8 17.7 0.00 0.00 0.00 47 1010.2
20260504204006 23 221 6.4 19.3 0.00 0.00 0.00 46 1010.2
20260504203509 23 259 9.7 19.3 0.00 0.00 0.00 46 1010.3
20260504203022 23 214 6.4 16.1 0.00 0.00 0.00 47 1010.3
20260504202508 23 229 6.4 14.5 0.00 0.00 0.00 46 1010.3
20260504202010 23 221 6.4 14.5 0.00 0.00 0.00 49 1010.3
20260504201524 23 202 6.4 14.5 0.00 0.00 0.00 48 1010.3
20260504201008 22 231 8.0 14.5 0.00 0.00 0.00 49 1010.4
20260504200503 22 232 6.4 16.1 0.00 0.00 0.00 49 1010.4
20260504200017 22 162 6.4 16.1 0.00 0.00 0.00 49 1010.5
20260504195503 22 167 4.8 14.5 0.00 0.00 0.00 49 1010.4
20260504195007 22 242 6.4 12.9 0.00 0.00 0.00 49 1010.4
20260504194517 22 202 6.4 12.9 0.00 0.00 0.00 50 1010.4
20260504194003 23 215 4.8 14.5 0.00 0.00 0.00 48 1010.4
20260504193506 23 199 4.8 14.5 0.00 0.00 0.00 50 1010.4
20260504193020 22 244 6.4 14.5 0.00 0.00 0.00 50 1010.4
20260504192512 22 232 4.8 12.9 0.00 0.00 0.00 51 1010.4
20260504192005 22 219 6.4 12.9 0.00 0.00 0.00 51 1010.4
20260504191504 22 217 4.8 16.1 0.00 0.00 0.00 51 1010.4
20260504191003 22 238 8.0 16.1 0.00 0.00 0.00 51 1010.4
20260504190506 22 257 8.0 12.9 0.00 0.00 0.00 51 1010.4
20260504190011 22 225 6.4 12.9 0.00 0.00 0.00 52 1010.5
20260504185503 22 149 3.2 12.9 0.00 0.00 0.00 53 1010.6
20260504185003 22 208 4.8 12.9 0.00 0.00 0.00 52 1010.6
20260504184508 22 184 4.8 12.9 0.00 0.00 0.00 49 1010.6
20260504184002 22 148 4.8 14.5 0.00 0.00 0.00 48 1010.7
20260504183503 22 206 8.0 14.5 0.00 0.00 0.00 49 1010.6
20260504183013 22 212 4.8 12.9 0.00 0.00 0.00 51 1010.7
20260504182503 21 237 3.2 12.9 0.00 0.00 0.00 49 1010.7
20260504182002 21 255 4.8 12.9 0.00 0.00 0.00 51 1010.7
20260504181510 21 148 6.4 16.1 0.00 0.00 0.00 50 1010.7
20260504181004 21 255 8.0 16.1 0.00 0.00 0.00 50 1010.7
20260504180503 21 265 8.0 16.1 0.00 0.00 0.00 51 1010.6
20260504180006 21 207 4.8 14.5 0.00 0.00 0.00 57 1010.6
20260504175504 20 200 6.4 14.5 0.00 0.00 0.00 56 1010.6
20260504175003 20 212 6.4 11.3 0.00 0.00 0.00 58 1010.5
20260504174510 20 254 4.8 11.3 0.00 0.00 0.00 53 1010.5
20260504174002 20 244 4.8 12.9 0.00 0.00 0.00 52 1010.6
20260504173503 20 217 4.8 12.9 0.00 0.00 0.00 53 1010.5
20260504173010 20 200 4.8 12.9 0.00 0.00 0.00 58 1010.5
20260504172505 20 229 4.8 12.9 0.00 0.00 0.00 59 1010.5
20260504172003 20 201 6.4 12.9 0.00 0.00 0.00 61 1010.5
20260504171512 19 202 3.2 12.9 0.00 0.00 0.00 64 1010.5
20260504171003 19 242 6.4 12.9 0.00 0.00 0.00 65 1010.5
20260504170503 18 169 3.2 11.3 0.00 0.00 0.00 66 1010.6
20260504151003 13 66 0.0 3.2 0.00 0.00 0.00 82 1010.2
20260504150508 13 66 1.6 3.2 0.00 0.00 0.00 83 1010.2
20260504141008 11 66 0.0 3.2 0.00 0.00 0.00 88 1009.7
20260504140504 11 66 1.6 3.2 0.00 0.00 0.00 89 1009.7
20260504130503 10 66 0.0 3.2 0.00 0.00 0.00 88 1009.3
20260504110506 11 66 0.0 3.2 0.00 0.00 0.00 84 1009.3
20260504100506 11 66 0.0 3.2 0.00 0.00 0.00 83 1009.4